Time,TemperatureF,DewpointF,PressureIn,WindDirection,WindDirectionDegrees,WindSpeedMPH,WindSpeedGustMPH,Humidity,HourlyPrecipIn,Conditions,Clouds,dailyrainin,SoftwareType,DateUTC
2013-01-24 00:00:00,19.0,14.0,30.36,South,169,1.0,2.0,80,0.00,,,-99.99,,2013-01-24 07:00:00,
2013-01-24 00:43:00,19.0,14.0,30.36,South,169,1.0,2.0,80,0.00,,,-99.99,,2013-01-24 07:43:00,
2013-01-24 00:53:00,19.0,14.0,30.36,South,169,1.0,2.0,80,0.00,,,-99.99,,2013-01-24 07:53:00,
2013-01-24 01:00:00,19.0,14.0,30.35,NW,311,1.0,4.0,80,0.00,,,-99.99,,2013-01-24 08:00:00,
2013-01-24 01:43:00,19.0,14.0,30.35,NW,311,1.0,4.0,80,0.00,,,-99.99,,2013-01-24 08:43:00,
2013-01-24 01:53:00,19.0,14.0,30.35,NW,311,1.0,4.0,80,0.00,,,-99.99,,2013-01-24 08:53:00,
2013-01-24 02:00:00,18.0,14.0,30.34,SSE,164,1.0,4.0,82,0.00,,,-99.99,,2013-01-24 09:00:00,
2013-01-24 02:43:00,18.0,14.0,30.34,SSE,164,1.0,4.0,82,0.00,,,-99.99,,2013-01-24 09:43:00,
2013-01-24 02:53:00,18.0,14.0,30.34,SSE,164,1.0,4.0,82,0.00,,,-99.99,,2013-01-24 09:53:00,
2013-01-24 03:00:00,18.0,14.0,30.36,SSE,157,2.0,4.0,83,0.00,,,-99.99,,2013-01-24 10:00:00,
2013-01-24 03:43:00,18.0,14.0,30.36,SSE,157,2.0,4.0,83,0.00,,,-99.99,,2013-01-24 10:43:00,
2013-01-24 03:53:00,18.0,14.0,30.36,SSE,157,2.0,4.0,83,0.00,,,-99.99,,2013-01-24 10:53:00,
2013-01-24 04:00:00,20.0,15.0,30.34,SE,136,3.0,9.0,81,0.00,,,-99.99,,2013-01-24 11:00:00,
2013-01-24 04:43:00,20.0,15.0,30.34,SE,136,3.0,9.0,81,0.00,,,-99.99,,2013-01-24 11:43:00,
2013-01-24 04:53:00,20.0,15.0,30.34,SE,136,3.0,9.0,81,0.00,,,-99.99,,2013-01-24 11:53:00,
2013-01-24 05:00:00,20.0,15.0,30.33,NW,314,2.0,6.0,81,0.00,,,-99.99,,2013-01-24 12:00:00,
2013-01-24 05:43:00,20.0,15.0,30.33,NW,314,2.0,6.0,81,0.00,,,-99.99,,2013-01-24 12:43:00,
2013-01-24 05:53:00,20.0,15.0,30.33,NW,314,2.0,6.0,81,0.00,,,-99.99,,2013-01-24 12:53:00,
2013-01-24 07:00:00,20.0,15.0,30.33,NW,311,2.0,4.0,81,0.00,,,-99.99,,2013-01-24 14:00:00,
2013-01-24 07:43:00,20.0,15.0,30.33,NW,311,2.0,4.0,81,0.00,,,-99.99,,2013-01-24 14:43:00,
2013-01-24 07:54:00,20.0,15.0,30.33,NW,311,2.0,4.0,81,0.00,,,-99.99,,2013-01-24 14:54:00,
2013-01-24 08:00:00,21.0,16.0,30.33,SSE,149,1.0,4.0,80,0.00,,,-99.99,,2013-01-24 15:00:00,
2013-01-24 08:43:00,21.0,16.0,30.33,SSE,149,1.0,4.0,80,0.00,,,-99.99,,2013-01-24 15:43:00,
2013-01-24 08:53:00,21.0,16.0,30.33,SSE,149,1.0,4.0,80,0.00,,,-99.99,,2013-01-24 15:53:00,
2013-01-24 09:00:00,22.0,17.0,30.33,East,82,1.0,3.0,78,0.00,,,-99.99,,2013-01-24 16:00:00,
2013-01-24 09:43:00,22.0,17.0,30.33,East,82,1.0,3.0,78,0.00,,,-99.99,,2013-01-24 16:43:00,
2013-01-24 10:00:00,25.0,18.0,30.35,South,179,1.0,5.0,73,0.00,,,-99.99,,2013-01-24 17:00:00,
2013-01-24 10:42:00,25.0,18.0,30.35,South,179,1.0,5.0,73,0.00,,,-99.99,,2013-01-24 17:42:00,
2013-01-24 10:52:00,25.0,18.0,30.35,South,179,1.0,5.0,73,0.00,,,-99.99,,2013-01-24 17:52:00,
2013-01-24 11:00:00,27.0,18.0,30.35,North,2,1.0,3.0,68,0.00,,,-99.99,,2013-01-24 18:00:00,
2013-01-24 11:43:00,27.0,18.0,30.35,North,2,1.0,3.0,68,0.00,,,-99.99,,2013-01-24 18:43:00,
2013-01-24 11:53:00,27.0,18.0,30.35,North,2,1.0,3.0,68,0.00,,,-99.99,,2013-01-24 18:53:00,
2013-01-24 12:00:00,28.0,19.0,30.33,NW,317,1.0,4.0,67,0.00,,,-99.99,,2013-01-24 19:00:00,
2013-01-24 12:42:00,28.0,19.0,30.33,NW,317,1.0,4.0,67,0.00,,,-99.99,,2013-01-24 19:42:00,
2013-01-24 12:52:00,28.0,19.0,30.33,NW,317,1.0,4.0,67,0.00,,,-99.99,,2013-01-24 19:52:00,
2013-01-24 13:00:00,28.0,19.0,30.29,NW,310,3.0,7.0,69,0.00,,,-99.99,,2013-01-24 20:00:00,
2013-01-24 13:33:00,28.0,19.0,30.29,NW,310,3.0,7.0,69,0.00,,,-99.99,,2013-01-24 20:33:00,
2013-01-24 13:42:00,28.0,19.0,30.29,NW,310,3.0,7.0,69,0.00,,,-99.99,,2013-01-24 20:42:00,
2013-01-24 13:52:00,28.0,19.0,30.29,NW,310,3.0,7.0,69,0.00,,,-99.99,,2013-01-24 20:52:00,
2013-01-24 14:00:00,29.0,20.0,30.30,NW,307,2.0,4.0,69,0.00,,,-99.99,,2013-01-24 21:00:00,
2013-01-24 14:43:00,29.0,20.0,30.30,NW,307,2.0,4.0,69,0.00,,,-99.99,,2013-01-24 21:43:00,
2013-01-24 14:53:00,29.0,20.0,30.30,NW,307,2.0,4.0,69,0.00,,,-99.99,,2013-01-24 21:53:00,
2013-01-24 15:00:00,30.0,21.0,30.30,WNW,283,1.0,4.0,70,0.00,,,-99.99,,2013-01-24 22:00:00,
2013-01-24 15:42:00,30.0,21.0,30.30,WNW,283,1.0,4.0,70,0.00,,,-99.99,,2013-01-24 22:42:00,
2013-01-24 15:53:00,30.0,21.0,30.30,WNW,283,1.0,4.0,70,0.00,,,-99.99,,2013-01-24 22:53:00,
2013-01-24 16:00:00,29.0,23.0,30.31,NNW,331,1.0,4.0,78,0.01,,,-99.99,,2013-01-24 23:00:00,
2013-01-24 16:42:00,29.0,23.0,30.31,NNW,331,1.0,4.0,78,0.01,,,-99.99,,2013-01-24 23:42:00,
2013-01-24 16:52:00,29.0,23.0,30.31,NNW,331,1.0,4.0,78,0.01,,,-99.99,,2013-01-24 23:52:00,
2013-01-24 17:00:00,29.0,24.0,30.29,East,88,0.0,3.0,81,0.00,,,-99.99,,2013-01-25 00:00:00,
2013-01-24 17:42:00,29.0,24.0,30.29,East,88,0.0,3.0,81,0.00,,,-99.99,,2013-01-25 00:42:00,
2013-01-24 17:52:00,29.0,24.0,30.29,East,88,0.0,3.0,81,0.00,,,-99.99,,2013-01-25 00:52:00,
2013-01-24 18:00:00,29.0,25.0,30.28,NW,316,2.0,6.0,85,0.00,,,-99.99,,2013-01-25 01:00:00,
2013-01-24 18:42:00,29.0,25.0,30.28,NW,316,2.0,6.0,85,0.00,,,-99.99,,2013-01-25 01:42:00,
2013-01-24 18:52:00,29.0,25.0,30.28,NW,316,2.0,6.0,85,0.00,,,-99.99,,2013-01-25 01:52:00,
2013-01-24 19:00:00,28.0,24.0,30.31,West,269,2.0,4.0,86,0.00,,,-99.99,,2013-01-25 02:00:00,
2013-01-24 19:43:00,28.0,24.0,30.31,West,269,2.0,4.0,86,0.00,,,-99.99,,2013-01-25 02:43:00,
2013-01-24 19:52:00,28.0,24.0,30.31,West,269,2.0,4.0,86,0.00,,,-99.99,,2013-01-25 02:52:00,
2013-01-24 20:00:00,29.0,25.0,30.31,SE,145,1.0,3.0,87,0.00,,,-99.99,,2013-01-25 03:00:00,
2013-01-24 20:42:00,29.0,25.0,30.31,SE,145,1.0,3.0,87,0.00,,,-99.99,,2013-01-25 03:42:00,
2013-01-24 20:52:00,29.0,25.0,30.31,SE,145,1.0,3.0,87,0.00,,,-99.99,,2013-01-25 03:52:00,
2013-01-24 21:00:00,29.0,26.0,30.31,NNE,15,0.0,2.0,90,0.00,,,-99.99,,2013-01-25 04:00:00,
2013-01-24 21:42:00,29.0,26.0,30.31,NNE,15,0.0,2.0,90,0.00,,,-99.99,,2013-01-25 04:42:00,
2013-01-24 21:51:00,29.0,26.0,30.31,NNE,15,0.0,2.0,90,0.00,,,-99.99,,2013-01-25 04:51:00,
2013-01-24 22:00:00,28.0,26.0,30.32,NW,326,2.0,6.0,91,0.00,,,-99.99,,2013-01-25 05:00:00,
2013-01-24 22:43:00,28.0,26.0,30.32,NW,326,2.0,6.0,91,0.00,,,-99.99,,2013-01-25 05:43:00,
2013-01-24 22:52:00,28.0,26.0,30.32,NW,326,2.0,6.0,91,0.00,,,-99.99,,2013-01-25 05:52:00,
2013-01-24 23:00:00,28.0,26.0,30.34,ESE,117,0.0,2.0,89,0.00,,,-99.99,,2013-01-25 06:00:00,
2013-01-24 23:42:00,28.0,26.0,30.34,ESE,117,0.0,2.0,89,0.00,,,-99.99,,2013-01-25 06:42:00,
2013-01-24 23:52:00,28.0,26.0,30.34,ESE,117,0.0,2.0,89,0.00,,,-99.99,,2013-01-25 06:52:00,